Voltar ao catálogo

STARLINK-31545

AtivoComunicaçõesVLEO
NORAD 59400·PAYLOAD·🇺🇸 United States

Lançado Apr 5, 2024 de Cape Canaveral Space Force Station

Loading…

Próximas Passagens (próximas 24 horas)

TLE

AtualizadoSource: CelesTrak SupGP

Época: Sep 14, 2026, 20:56 UTC

1 59400C 24064C   26257.87270833  .00027101  00000+0  98166-3 0  2574
2 59400  43.0006  67.5489 0001436 274.0163   5.5707 15.27562418    15

Acompanhe STARLINK-31545 em tempo real com AllMySat

Download on the App Store